Snowfall_Accumulation
nan nan nan nan nan nan nan nan nan nan nan nan nan nan nan nan nan 0.0 0.0 0.0 0.0 0.9 0.0 0.0 0.0 0.1 0.4 0.1 1.5 0.3 3.0 1.7 0.9 1.8 1.0 1.0 1.0 0.2 0.2 0.1 0.5 0.2 0.6 1.5 0.8 1.1 0.9 0.0 0.0 0.0 0.1 0.0 0.0 0.0
nan nan nan nan nan nan nan nan nan nan nan nan nan nan nan nan nan nan 0.0 0.0 0.0 0.0 0.1 0.0 0.0 0.0 0.0 0.0 0.0 0.0 0.8 1.8 1.7 1.1 0.6 0.4 1.1 1.2 0.1 0.9 0.7 3.8 0.2 0.2 0.0 0.1 0.0 0.0 0.0 0.0 0.0 0.0 0.0 0.0
nan nan nan nan nan nan nan nan nan nan nan nan nan nan nan nan nan nan 0.0 0.0 0.0 1.0 0.1 0.0 0.0 0.0 0.0 0.0 0.0 0.4 0.0 0.0 0.7 0.0 1.7 1.0 1.0 0.4 1.4 0.3 0.1 0.0 0.0 2.5 1.3 0.1 0.0 0.0 0.0 0.0 0.0 0.0 0.0 0.0
nan nan nan nan nan nan nan nan nan nan nan nan nan nan nan nan nan nan 0.0 0.0 0.0 0.1 2.3 0.4 0.0 0.0 0.0 0.0 0.0 0.0 0.0 0.0 0.0 0.0 1.2 1.8 1.7 0.1 0.8 0.2 0.7 0.2 0.2 0.7 0.8 0.2 0.1 0.1 0.1 0.1 0.2 0.2 0.3 0.5
nan nan nan nan nan nan nan nan nan nan nan nan nan nan nan nan nan nan 0.0 0.0 0.0 0.2 2.0 0.5 0.0 0.0 0.0 0.0 0.0 0.0 0.0 0.0 0.0 0.2 1.4 1.0 0.0 1.1 1.1 0.5 1.0 0.9 2.6 3.0 1.7 0.4 0.4 0.9 0.5 0.4 0.4 0.8 0.8 0.2
nan nan nan nan nan nan nan nan nan nan nan nan nan nan nan nan nan 0.3 7.9 0.0 0.0 0.0 1.9 1.7 0.0 0.0 0.0 0.0 0.0 0.0 0.0 0.0 0.0 0.2 0.7 0.0 0.0 0.5 4.5 4.0 1.0 1.0 0.4 0.2 2.7 1.4 1.4 1.5 1.0 0.6 0.8 1.0 2.0 1.4
nan nan nan nan nan nan nan nan nan nan nan nan nan nan nan nan 0.0 2.0 1.7 0.0 nan 0.0 2.1 2.5 0.3 0.0 0.0 0.0 0.0 0.0 0.0 0.0 0.0 0.0 0.2 0.1 0.0 0.0 3.2 3.6 1.7 0.9 1.2 0.9 0.7 0.4 0.8 0.7 0.8 0.4 0.0 0.0 0.0 0.0
nan nan nan nan nan nan nan nan nan nan nan nan nan nan nan nan nan 0.0 0.0 nan nan 0.4 0.1 2.8 1.7 0.5 0.0 0.2 0.4 0.0 0.1 0.1 0.2 0.2 0.3 0.2 0.1 0.3 3.1 3.6 1.6 0.7 0.8 0.4 0.3 0.1 0.1 0.0 0.0 0.0 0.0 0.0 0.0 0.0
nan nan nan nan nan nan nan nan nan nan nan nan nan nan 0.0 0.0 0.1 0.0 nan nan 0.0 0.1 0.9 1.1 2.7 8.3 0.4 0.4 0.6 0.1 0.0 3.3 0.1 0.9 0.4 0.2 3.3 4.6 2.9 0.9 0.6 0.2 0.2 0.2 0.0 0.0 0.0 0.0 0.0 0.0 0.0 0.0 0.0 0.0
nan nan nan nan nan nan nan nan nan nan nan nan 0.0 0.1 3.1 0.0 nan nan 0.0 1.3 0.8 0.1 0.1 1.1 0.1 2.2 1.2 2.3 2.3 1.1 0.6 1.5 2.7 1.5 0.4 3.9 5.7 0.6 0.3 0.3 0.3 0.1 0.1 0.0 0.1 0.1 0.1 0.1 0.0 0.0 0.1 0.1 0.1 0.2
nan nan nan nan nan nan nan nan nan nan nan 0.0 0.4 1.3 0.0 nan 0.0 0.1 5.1 3.7 2.4 1.3 0.1 0.5 0.4 0.9 0.1 7.2 3.9 0.4 1.4 2.2 2.0 1.6 2.5 4.4 3.1 1.5 0.3 0.1 0.1 0.2 0.1 0.2 0.3 0.4 0.4 0.4 0.3 0.2 0.3 0.3 0.5 0.6
nan nan nan nan nan nan nan nan nan 0.0 0.0 0.0 0.0 0.0 0.0 0.5 1.9 2.5 3.6 2.1 0.8 0.4 0.9 1.0 0.7 0.7 0.5 0.1 2.9 1.8 1.4 1.6 2.1 0.8 3.3 4.2 3.3 0.6 0.3 0.3 0.2 0.3 0.5 0.6 0.3 0.4 0.7 0.5 0.6 0.8 0.9 1.1 1.7 2.1
nan nan nan nan nan nan nan nan nan nan nan 0.0 0.0 0.3 0.6 2.5 34.0 5.2 4.6 3.3 6.3 1.8 2.4 1.9 5.7 1.2 0.5 0.5 4.4 1.1 8.1 5.3 0.5 7.5 4.2 3.9 0.9 0.4 0.2 0.1 0.4 0.4 0.4 0.6 1.2 1.1 1.0 1.2 0.8 1.8 1.8 3.7 3.6 4.3
nan nan nan nan nan nan nan nan nan 0.0 0.0 0.3 1.0 37.7 8.4 7.6 5.0 5.9 5.5 5.6 3.7 2.9 1.5 2.8 3.7 4.9 3.5 4.9 5.1 6.4 6.4 2.7 9.0 6.7 5.3 3.0 1.1 0.9 0.6 0.8 0.4 2.5 2.4 2.6 3.0 3.4 4.1 4.8 7.9 8.1 9.3 10.2 8.3 8.8
nan nan nan nan nan nan nan nan nan 0.0 0.0 0.8 1.2 27.9 9.6 6.0 6.0 6.3 4.9 3.9 2.3 1.0 1.8 2.9 2.8 1.9 4.6 10.6 4.4 2.8 7.2 8.6 4.4 6.1 5.8 3.6 2.3 1.8 2.7 3.1 3.9 5.0 6.6 6.5 7.2 7.2 10.1 8.8 8.1 8.4 10.3 9.5 7.3 8.8
nan nan 0.0 nan nan nan nan nan 0.0 0.0 0.3 1.5 2.8 6.4 6.1 9.2 18.0 13.6 9.8 6.8 1.4 2.6 1.6 2.2 4.4 6.3 7.2 4.7 3.7 5.6 3.0 5.2 10.4 8.7 5.7 3.2 3.5 5.1 5.7 5.8 7.3 7.1 7.4 8.1 7.7 7.0 7.4 8.1 7.5 7.8 6.2 6.3 9.0 7.7
nan 0.1 nan nan nan nan nan 0.0 0.1 0.2 2.6 2.0 17.6 14.4 11.2 10.0 16.2 13.9 7.9 3.3 1.3 3.7 11.0 3.8 6.0 5.5 1.6 3.8 2.1 3.8 13.6 12.0 11.3 9.2 6.2 4.4 5.5 6.8 7.2 6.2 6.8 5.4 5.2 5.2 4.9 3.7 4.2 4.6 3.3 1.4 1.5 2.4 1.0 1.6
0.0 0.0 nan nan nan nan 0.0 0.0 1.6 1.2 2.4 5.8 13.5 17.2 8.5 9.1 14.1 8.9 6.0 2.6 2.3 2.4 2.7 3.3 1.1 3.5 11.2 5.0 8.9 10.2 9.7 11.5 8.2 7.4 7.3 7.3 6.6 6.6 5.9 5.9 5.6 4.5 4.0 4.5 3.3 3.0 2.7 1.9 1.0 2.4 1.1 0.8 0.7 0.8
0.0 0.0 nan nan 0.0 0.1 0.5 0.3 0.2 2.4 8.6 7.0 6.1 3.9 5.3 10.9 4.4 3.3 3.5 1.7 0.8 0.3 0.8 1.6 4.0 6.0 11.0 8.5 13.5 14.6 12.2 6.7 7.1 6.8 6.7 6.3 6.0 6.0 6.2 5.4 4.8 4.2 3.0 2.1 1.2 2.0 2.1 1.4 1.8 1.7 1.6 1.3 3.0 2.9
nan nan nan nan nan 0.2 0.2 1.6 0.1 0.4 4.9 6.3 3.3 4.1 4.1 7.1 3.6 7.9 4.9 0.9 0.5 1.1 2.4 4.0 11.8 12.5 9.2 10.1 6.6 6.3 5.5 4.2 3.1 4.1 6.0 6.1 5.9 3.7 4.8 3.3 3.9 2.7 2.1 1.2 1.9 0.8 1.7 1.7 1.7 1.9 2.2 2.0 4.7 6.4
nan nan nan 0.0 0.2 0.0 0.3 0.8 0.6 0.6 2.1 2.7 2.5 2.2 6.6 2.8 4.2 6.5 5.0 0.6 3.7 3.8 7.1 10.1 11.4 14.4 6.0 6.9 5.2 4.4 5.0 3.5 5.4 4.4 3.6 4.1 4.3 2.6 2.6 3.3 2.2 2.0 1.9 2.6 5.2 4.2 2.7 3.6 2.5 2.3 13.3 15.7 11.2 8.8
0.0 nan 0.2 0.2 0.5 0.4 1.6 0.2 0.7 0.8 0.9 1.0 1.4 0.9 4.1 13.3 12.1 6.2 1.3 4.7 5.9 9.7 7.2 6.2 6.8 3.7 3.2 3.1 4.3 1.6 2.6 1.5 2.3 2.8 1.7 1.5 3.9 3.4 4.3 4.0 2.8 5.2 5.0 6.3 5.0 9.0 5.5 2.7 4.2 4.8 9.8 15.1 5.9 6.8
nan 0.1 0.8 0.5 2.4 9.0 20.6 0.7 2.0 0.8 3.5 2.3 1.5 2.0 5.6 6.4 3.7 0.5 6.3 3.4 9.5 8.2 4.5 2.3 2.0 0.9 2.5 2.1 1.1 0.7 0.6 0.5 2.0 3.1 5.1 4.2 3.4 10.1 4.3 3.8 3.9 7.4 6.0 2.9 1.8 4.1 5.5 3.1 5.1 14.2 9.9 10.0 15.1 21.0
nan 1.0 6.1 5.1 6.0 22.6 2.6 7.5 0.5 1.0 1.3 3.1 3.6 4.5 1.5 3.2 1.1 5.2 7.0 4.6 8.0 5.2 3.2 2.7 1.6 1.8 1.5 1.0 2.1 2.2 2.0 1.4 1.5 4.1 3.7 2.0 2.6 2.6 2.1 2.6 3.1 3.2 3.7 1.6 3.3 5.5 5.2 14.5 7.4 7.3 16.5 28.5 34.3 29.3
14.3 23.4 10.2 38.3 4.1 11.6 5.8 4.6 4.1 2.3 5.9 5.3 4.4 5.3 13.3 2.2 7.9 7.5 3.0 7.0 6.6 10.0 6.0 4.5 2.6 2.4 5.9 6.8 4.2 3.6 1.6 1.1 2.0 2.0 6.4 1.6 3.4 3.1 2.7 1.4 3.2 2.2 2.9 12.0 14.9 18.9 18.6 18.1 19.3 18.6 12.3 32.2 16.6 15.0
36.6 18.3 29.2 6.7 13.2 6.6 4.0 9.1 9.3 8.8 6.4 7.6 8.1 3.8 5.3 8.1 7.6 10.0 3.9 12.6 10.2 18.2 22.2 20.5 12.8 4.3 2.4 1.5 2.3 1.9 1.6 0.7 1.0 4.6 1.9 1.2 1.8 10.6 9.8 7.1 5.7 6.1 4.5 9.9 16.3 23.9 18.7 16.9 22.9 12.5 20.3 13.5 9.6 26.8
33.1 21.5 2.9 1.0 1.8 1.3 9.9 9.7 2.8 7.6 8.7 10.4 6.2 9.3 9.0 16.6 11.5 6.3 6.6 5.3 5.1 11.4 5.0 4.8 4.4 3.7 2.8 2.3 1.9 2.1 1.8 2.3 2.5 1.8 2.6 1.9 2.0 2.3 6.7 14.5 8.4 5.4 6.6 9.5 14.9 28.6 28.7 26.9 28.9 19.8 23.9 25.1 25.2 30.9
6.8 3.6 14.3 9.9 8.2 4.3 10.0 7.8 8.7 10.5 6.6 3.1 5.1 11.8 12.9 12.7 9.6 8.7 6.6 7.8 7.7 5.0 4.9 5.1 3.5 2.7 3.3 3.6 4.9 6.0 7.2 6.3 7.8 5.8 4.7 4.4 4.2 8.4 8.6 9.1 8.1 7.5 10.8 20.6 24.8 26.7 21.6 31.2 33.4 33.3 30.8 29.5 31.1 30.0
7.5 5.8 4.7 13.6 6.5 7.1 10.0 11.6 10.4 4.9 2.0 4.5 16.5 8.9 8.2 6.0 12.4 15.0 9.6 6.0 6.9 7.1 14.3 13.2 13.1 18.6 12.9 8.4 10.7 15.7 11.6 14.0 11.1 13.2 18.0 17.9 17.4 16.2 11.5 14.0 15.2 19.5 18.8 30.2 7.9 11.9 17.7 24.4 28.9 31.7 30.0 35.9 34.0 37.7
6.2 6.3 6.8 8.5 10.6 8.1 17.1 12.4 14.8 11.0 2.0 5.0 4.2 3.0 4.4 12.1 17.9 8.9 10.0 12.1 13.9 26.7 37.1 32.4 30.2 33.1 36.8 27.4 23.6 17.2 24.4 28.6 21.5 23.1 29.3 22.9 19.7 19.2 22.2 27.2 26.8 26.2 26.0 42.6 27.4 12.3 9.3 25.4 19.8 36.6 33.0 30.8 31.2 35.3
3.3 10.1 9.3 6.6 10.5 22.1 22.2 22.9 21.0 11.0 12.1 23.4 20.8 23.0 19.3 17.4 17.2 10.5 10.7 14.7 17.8 40.6 43.1 45.3 44.2 45.9 37.8 25.9 39.1 35.3 25.3 36.9 17.6 13.4 13.2 19.8 22.1 30.1 31.7 27.6 29.7 38.9 33.9 31.7 37.8 30.6 24.7 31.8 37.7 33.1 24.8 22.8 23.3 24.5
14.9 23.1 21.6 11.1 17.0 30.5 16.8 35.3 27.6 25.9 28.6 30.8 31.8 33.2 37.1 31.2 19.9 16.1 18.5 27.4 32.1 36.4 9.3 31.7 43.3 22.8 22.1 20.5 25.3 26.0 10.2 16.8 17.2 17.1 18.1 23.3 28.0 31.4 21.4 18.3 37.1 37.6 31.6 33.8 28.9 29.7 24.6 30.2 28.8 29.8 27.7 24.7 22.5 20.4
31.8 21.8 15.2 15.9 26.3 17.0 22.8 23.2 6.5 24.1 22.6 26.1 32.2 27.8 32.4 26.1 14.2 21.7 11.5 24.1 29.4 30.7 26.1 34.5 36.1 41.7 24.1 20.2 19.1 20.3 11.8 18.4 20.3 10.4 9.2 9.2 9.1 11.3 25.6 33.4 39.8 31.7 20.9 27.5 30.5 27.8 22.9 18.6 19.4 21.6 22.2 25.0 22.8 21.0
Water_Equivalent
nan nan nan nan nan nan nan nan nan nan nan nan nan nan nan nan nan 0.00 0.00 0.00 0.01 0.21 0.00 0.00 0.00 0.01 0.07 0.02 0.24 0.06 0.51 0.32 0.22 0.31 0.22 0.18 0.29 0.06 0.04 0.02 0.10 0.05 0.16 0.37 0.19 0.24 0.20 0.00 0.00 0.00 0.01 0.00 0.00 0.00
nan nan nan nan nan nan nan nan nan nan nan nan nan nan nan nan nan nan 0.00 0.00 0.00 0.01 0.02 0.00 0.00 0.00 0.00 0.00 0.00 0.00 0.17 0.37 0.33 0.17 0.13 0.11 0.31 0.40 0.02 0.21 0.12 0.63 0.04 0.05 0.01 0.04 0.00 0.00 0.00 0.00 0.00 0.00 0.00 0.00
nan nan nan nan nan nan nan nan nan nan nan nan nan nan nan nan nan nan 0.00 0.00 0.00 0.26 0.02 0.00 0.00 0.00 0.00 0.00 0.00 0.08 0.00 0.00 0.15 0.00 0.28 0.19 0.16 0.11 0.35 0.08 0.03 0.00 0.00 0.48 0.22 0.01 0.00 0.00 0.00 0.00 0.00 0.01 0.00 0.00
nan nan nan nan nan nan nan nan nan nan nan nan nan nan nan nan nan nan 0.00 0.00 0.00 0.02 0.54 0.11 0.00 0.00 0.00 0.00 0.00 0.00 0.00 0.00 0.00 0.00 0.25 0.36 0.38 0.02 0.18 0.07 0.17 0.04 0.05 0.11 0.15 0.05 0.01 0.01 0.01 0.01 0.05 0.04 0.08 0.10
nan nan nan nan nan nan nan nan nan nan nan nan nan nan nan nan nan nan 0.00 0.00 0.00 0.02 0.39 0.11 0.00 0.00 0.00 0.00 0.00 0.00 0.00 0.00 0.00 0.05 0.43 0.26 0.01 0.24 0.29 0.11 0.17 0.17 0.73 0.58 0.30 0.09 0.10 0.18 0.09 0.06 0.07 0.12 0.12 0.03
nan nan nan nan nan nan nan nan nan nan nan nan nan nan nan nan nan 0.11 2.04 0.00 0.00 0.00 0.29 0.40 0.00 0.00 0.00 0.00 0.00 0.00 0.00 0.00 0.00 0.06 0.20 0.02 0.00 0.12 0.92 0.62 0.17 0.17 0.08 0.04 0.67 0.27 0.28 0.28 0.16 0.09 0.11 0.14 0.26 0.18
nan nan nan nan nan nan nan nan nan nan nan nan nan nan nan nan 0.00 0.50 0.30 0.00 nan 0.00 0.36 0.49 0.10 0.00 0.00 0.00 0.00 0.00 0.00 0.00 0.00 0.00 0.07 0.02 0.00 0.01 0.63 0.53 0.25 0.14 0.19 0.15 0.11 0.07 0.13 0.10 0.10 0.06 0.01 0.00 0.00 0.00
nan nan nan nan nan nan nan nan nan nan nan nan nan nan nan nan nan 0.00 0.00 nan nan 0.07 0.01 0.63 0.44 0.14 0.00 0.09 0.14 0.00 0.03 0.02 0.05 0.07 0.12 0.07 0.02 0.10 0.54 0.47 0.21 0.10 0.13 0.06 0.05 0.01 0.01 0.00 0.00 0.00 0.00 0.00 0.00 0.00
nan nan nan nan nan nan nan nan nan nan nan nan nan nan 0.00 0.00 0.01 0.00 nan nan 0.00 0.02 0.23 0.28 0.62 1.81 0.13 0.12 0.16 0.05 0.00 0.73 0.03 0.26 0.15 0.06 0.71 0.92 0.49 0.11 0.08 0.03 0.03 0.02 0.00 0.00 0.00 0.00 0.00 0.00 0.00 0.00 0.00 0.00
nan nan nan nan nan nan nan nan nan nan nan nan 0.00 0.03 0.77 0.02 nan nan 0.01 0.43 0.21 0.03 0.03 0.30 0.05 0.59 0.23 0.51 0.51 0.26 0.16 0.40 0.57 0.42 0.11 0.78 0.82 0.10 0.05 0.05 0.05 0.03 0.02 0.01 0.01 0.02 0.01 0.01 0.01 0.00 0.02 0.02 0.01 0.02
nan nan nan nan nan nan nan nan nan nan nan 0.00 0.11 0.40 0.01 nan 0.00 0.04 0.96 0.68 0.44 0.29 0.04 0.13 0.13 0.29 0.02 1.34 0.74 0.13 0.46 0.56 0.52 0.36 0.52 0.77 0.49 0.20 0.03 0.02 0.02 0.04 0.02 0.04 0.05 0.07 0.07 0.07 0.05 0.03 0.05 0.05 0.06 0.08
nan nan nan nan nan nan nan nan nan 0.00 0.00 0.00 0.00 0.00 0.01 0.14 0.45 0.49 0.91 0.57 0.20 0.11 0.30 0.30 0.20 0.19 0.19 0.04 0.56 0.41 0.38 0.48 0.33 0.19 0.88 0.79 0.45 0.07 0.05 0.05 0.03 0.05 0.07 0.08 0.05 0.06 0.10 0.07 0.09 0.11 0.11 0.13 0.18 0.26
nan nan nan nan nan nan nan nan nan nan nan 0.00 0.02 0.07 0.15 0.76 4.76 1.33 1.14 0.92 1.93 0.55 0.85 0.70 1.99 0.40 0.19 0.17 1.03 0.32 1.89 1.25 0.16 1.68 0.65 0.54 0.11 0.05 0.03 0.02 0.05 0.05 0.06 0.08 0.15 0.14 0.13 0.16 0.10 0.26 0.20 0.50 0.51 0.52
nan nan nan nan nan nan nan nan nan 0.00 0.00 0.09 0.32 4.86 2.10 2.05 1.08 1.16 1.17 1.46 1.10 1.12 0.56 0.71 0.98 1.23 1.09 1.30 1.41 1.75 1.48 0.65 1.99 1.30 0.79 0.40 0.14 0.13 0.10 0.13 0.06 0.30 0.31 0.33 0.36 0.43 0.53 0.65 1.05 1.12 1.35 1.50 1.17 1.16
nan nan nan nan nan nan nan nan nan 0.00 0.01 0.23 0.34 3.50 1.75 1.31 1.42 1.59 1.48 1.23 0.72 0.33 0.51 0.70 0.71 0.43 1.28 2.51 1.16 0.78 1.68 1.70 0.82 0.97 0.93 0.51 0.32 0.27 0.36 0.43 0.54 0.68 0.91 0.86 0.94 0.94 1.31 1.08 1.05 0.97 1.29 1.18 0.89 1.09
nan nan 0.00 nan nan nan nan nan 0.00 0.00 0.11 0.36 0.59 1.27 1.40 2.02 3.59 3.45 2.68 1.94 0.34 0.62 0.44 0.55 1.04 1.48 1.56 1.03 0.84 1.12 0.56 0.80 1.51 1.41 0.88 0.49 0.47 0.67 0.75 0.79 1.02 1.00 0.99 1.01 0.93 0.82 0.85 0.96 0.87 0.80 0.69 0.75 1.17 1.05
nan 0.02 nan nan nan nan nan 0.00 0.05 0.05 0.64 0.45 2.99 3.47 2.28 2.16 3.10 2.84 1.80 0.72 0.30 0.93 2.85 0.86 1.14 0.87 0.34 0.80 0.40 0.62 2.04 1.65 1.87 1.36 0.84 0.57 0.71 0.88 0.95 0.79 0.88 0.66 0.61 0.61 0.56 0.43 0.48 0.57 0.42 0.17 0.18 0.25 0.12 0.21
0.00 0.00 nan nan nan nan 0.00 0.01 0.32 0.30 0.40 0.94 2.18 2.94 1.49 1.62 2.90 1.92 1.35 0.52 0.50 0.48 0.51 0.52 0.22 0.65 2.09 0.84 1.29 1.34 1.35 1.77 1.21 0.93 0.85 0.86 0.76 0.78 0.71 0.69 0.66 0.52 0.44 0.50 0.38 0.35 0.34 0.25 0.13 0.30 0.13 0.10 0.10 0.10
0.00 0.00 nan nan 0.00 0.03 0.14 0.09 0.05 0.42 1.26 1.21 1.04 0.74 1.00 1.95 0.84 0.67 0.86 0.40 0.18 0.08 0.20 0.36 0.80 0.81 1.40 1.05 2.02 2.38 1.94 0.99 0.81 0.73 0.73 0.69 0.69 0.70 0.71 0.63 0.55 0.47 0.34 0.23 0.14 0.24 0.25 0.16 0.23 0.24 0.24 0.20 0.44 0.39
nan nan nan nan nan 0.08 0.04 0.39 0.04 0.09 0.81 0.94 0.68 0.70 0.65 1.07 0.73 1.83 1.27 0.25 0.13 0.26 0.45 0.60 1.40 1.34 1.03 1.15 0.82 0.80 0.69 0.59 0.44 0.53 0.68 0.68 0.71 0.42 0.55 0.38 0.45 0.31 0.25 0.14 0.25 0.19 0.24 0.23 0.23 0.25 0.30 0.27 0.65 0.87
nan nan nan 0.00 0.06 0.00 0.11 0.20 0.12 0.15 0.35 0.44 0.51 0.49 0.90 0.63 0.80 1.24 1.04 0.15 0.76 0.58 0.76 1.06 1.39 1.98 0.71 0.84 0.68 0.57 0.61 0.48 0.66 0.72 0.49 0.42 0.48 0.31 0.31 0.43 0.32 0.29 0.28 0.35 0.76 0.52 0.41 0.45 0.30 0.29 2.14 2.58 1.76 1.41
0.00 nan 0.09 0.06 0.14 0.11 0.39 0.07 0.15 0.16 0.21 0.22 0.30 0.23 0.81 2.46 2.18 1.15 0.29 0.85 0.68 1.01 0.80 0.72 0.76 0.45 0.39 0.34 0.46 0.18 0.29 0.18 0.28 0.38 0.35 0.25 0.46 0.41 0.49 0.50 0.38 0.65 0.62 0.81 0.64 1.24 0.75 0.34 0.58 0.68 1.52 2.54 0.96 1.09
nan 0.05 0.21 0.12 0.57 1.27 2.29 0.15 0.42 0.16 0.76 0.52 0.38 0.42 1.05 1.18 0.69 0.13 1.05 0.45 1.10 0.89 0.53 0.29 0.22 0.11 0.29 0.23 0.15 0.09 0.10 0.07 0.28 0.40 0.66 0.49 0.40 1.45 0.53 0.46 0.51 1.05 0.81 0.34 0.26 0.58 0.80 0.82 0.85 2.25 1.57 1.62 2.47 3.42
nan 0.25 1.35 1.20 1.03 2.87 0.70 1.61 0.14 0.25 0.32 0.68 0.76 0.79 0.27 0.64 0.24 0.89 1.00 0.51 0.81 0.61 0.40 0.30 0.27 0.27 0.24 0.14 0.27 0.29 0.31 0.26 0.24 0.58 0.59 0.30 0.33 0.30 0.27 0.34 0.42 0.44 0.52 0.23 0.49 0.82 0.80 2.30 2.03 1.10 2.56 4.63 5.56 4.54
1.85 3.17 2.25 4.10 1.00 2.42 1.14 0.94 0.86 0.52 1.05 1.07 0.82 1.01 2.05 0.50 1.27 1.16 0.46 0.82 0.77 1.26 0.73 0.68 0.41 0.39 0.83 0.90 0.51 0.42 0.20 0.19 0.27 0.24 0.94 0.25 0.48 0.44 0.38 0.21 0.45 0.30 0.43 1.83 2.28 3.01 2.98 2.93 3.12 2.93 1.80 5.14 2.44 2.14
4.21 3.29 3.32 1.48 2.55 1.43 0.82 1.51 1.59 1.61 1.12 1.23 1.34 0.70 1.11 1.53 1.19 1.27 0.48 1.65 1.36 2.54 3.26 3.07 1.94 0.61 0.29 0.21 0.29 0.22 0.19 0.14 0.18 0.65 0.25 0.17 0.25 1.52 1.40 1.00 0.76 0.87 0.62 1.44 2.41 3.86 2.82 2.52 3.53 1.79 3.03 1.98 2.43 3.86
3.69 3.29 0.59 0.24 0.38 0.30 1.72 1.89 0.62 1.35 1.31 1.50 1.11 1.58 1.73 2.23 1.56 0.67 0.70 0.60 0.59 1.38 0.60 0.66 0.68 0.50 0.34 0.26 0.23 0.26 0.25 0.31 0.32 0.23 0.35 0.26 0.27 0.32 0.89 1.84 1.05 0.68 0.92 1.37 2.21 4.51 4.39 4.10 4.36 2.86 3.47 3.75 3.62 4.42
1.14 0.66 1.66 1.83 1.35 0.82 1.55 1.24 1.37 1.53 1.11 0.53 0.88 1.61 1.76 1.73 1.08 0.88 0.65 0.86 0.94 0.63 0.63 0.66 0.46 0.35 0.42 0.42 0.58 0.66 0.85 0.77 1.01 0.79 0.64 0.59 0.57 1.04 1.02 1.15 1.04 2.48 1.50 2.95 3.72 3.93 3.08 4.64 4.96 4.87 4.20 4.17 4.16 4.24
1.18 1.17 0.88 1.50 0.95 1.09 1.40 1.64 1.43 0.73 0.25 0.80 2.72 1.25 1.03 0.64 1.24 1.53 0.89 0.62 0.93 0.98 1.60 1.46 1.40 2.17 1.50 1.02 1.27 1.82 1.26 1.55 1.39 1.43 2.01 1.99 2.05 1.76 1.22 1.51 1.66 2.20 2.11 3.68 2.60 2.66 2.62 3.32 3.82 4.02 4.39 4.83 4.63 5.01
0.96 1.39 1.14 1.26 1.12 1.03 2.43 1.83 2.42 1.81 0.28 0.78 0.65 0.39 0.45 1.11 1.62 0.89 1.03 1.28 1.53 3.29 4.93 4.18 3.81 4.33 4.85 3.37 2.78 1.91 2.86 3.44 2.46 2.72 3.65 2.60 2.19 2.12 2.51 3.19 3.16 3.07 3.04 5.61 3.20 1.36 2.47 3.34 3.76 4.81 4.10 3.68 3.72 4.29
0.70 2.11 1.63 1.16 1.59 3.28 3.13 3.62 3.61 1.83 2.01 3.66 3.27 3.56 2.37 1.76 1.73 0.95 1.02 1.49 1.96 5.65 6.12 6.37 6.12 6.38 4.98 3.06 5.17 4.52 2.96 4.75 1.91 1.42 1.39 2.18 2.48 3.58 3.82 3.22 3.52 4.89 4.15 3.81 4.70 3.59 2.78 3.77 4.68 4.09 2.90 2.56 2.56 2.68
2.41 3.67 2.85 1.44 2.45 4.70 2.64 5.67 4.42 3.98 4.96 4.56 4.74 4.50 4.90 3.93 2.21 1.67 1.93 3.25 4.02 4.77 2.64 3.95 5.92 2.63 2.50 2.28 2.96 3.06 3.07 1.83 1.87 1.85 1.97 2.61 3.27 3.76 2.38 1.98 4.57 4.68 3.75 4.02 3.34 3.42 2.75 3.51 3.30 3.45 3.12 2.72 2.44 2.18
5.49 3.61 2.29 2.30 4.28 2.66 3.24 3.85 1.03 3.65 3.20 3.73 4.34 3.50 4.00 3.11 1.46 2.39 1.13 2.81 3.55 3.82 3.13 4.38 4.65 5.60 2.76 2.26 2.11 2.28 2.62 2.03 2.65 3.44 3.02 3.02 3.00 2.89 2.91 4.03 4.99 3.73 2.28 3.14 3.52 3.13 2.51 1.98 2.07 2.36 2.40 2.74 2.47 2.25
SL_Ratio
nan nan nan nan nan nan nan nan nan nan nan nan nan nan nan nan nan nan nan nan 4.7 4.1 5.0 nan nan 5.8 5.8 5.6 6.1 6.0 5.8 5.2 4.2 5.9 4.8 5.7 3.3 4.0 4.0 5.6 5.1 5.3 4.0 3.9 4.4 4.8 4.8 nan nan 5.0 4.9 nan nan nan
nan nan nan nan nan nan nan nan nan nan nan nan nan nan nan nan nan nan nan nan nan 4.7 4.7 nan nan nan nan nan nan nan 4.8 5.0 5.2 6.7 4.4 3.8 3.5 3.0 6.1 4.4 6.2 6.1 5.1 4.1 3.3 3.2 nan nan nan nan nan nan nan nan
nan nan nan nan nan nan nan nan nan nan nan nan nan nan nan nan nan nan nan nan nan 3.7 4.7 4.0 nan nan nan nan nan 5.6 0.0 4.4 4.7 3.3 6.1 5.1 6.2 3.8 3.9 4.2 4.6 6.4 5.0 5.3 6.1 5.2 nan nan nan 5.0 2.5 2.8 2.5 nan
nan nan nan nan nan nan nan nan nan nan nan nan nan nan nan nan nan nan 2.5 nan nan 6.0 4.2 3.8 nan nan nan nan nan nan nan nan nan nan 4.7 4.9 4.4 4.8 4.3 3.8 4.4 5.0 3.9 6.4 5.1 3.8 6.1 6.2 6.3 5.1 4.7 4.6 4.3 5.2
nan nan nan nan nan nan nan nan nan nan nan nan nan nan nan nan nan nan nan nan nan 6.3 5.1 4.2 nan nan nan nan nan nan nan nan nan 3.3 3.3 4.0 2.6 4.7 3.8 4.6 5.7 5.4 3.5 5.3 5.9 4.8 4.1 5.2 6.0 6.4 6.1 6.4 6.7 7.0
nan nan nan nan nan nan nan nan nan nan nan nan nan nan nan nan nan 2.5 3.9 nan nan nan 6.5 4.3 5.0 nan nan nan nan nan nan nan nan 4.3 3.7 2.6 nan 4.5 4.9 6.5 5.7 5.8 5.9 5.9 4.0 5.3 5.1 5.4 6.2 6.5 7.2 7.2 7.5 7.5
nan nan nan nan nan nan nan nan nan nan nan nan nan nan nan nan nan 4.0 5.8 10.0 nan nan 5.9 5.2 2.9 nan nan nan nan nan nan nan nan 2.5 2.7 2.6 2.7 5.0 5.0 6.9 6.9 6.5 6.4 6.5 6.1 5.7 6.7 6.7 8.1 7.3 7.5 10.0 nan nan
nan nan nan nan nan nan nan nan nan nan nan nan nan nan nan nan nan nan nan nan nan 6.1 5.6 4.4 3.9 3.3 nan 2.6 3.0 nan 2.7 2.5 3.2 2.7 2.5 2.5 2.5 2.8 5.7 7.7 7.7 7.0 6.1 6.9 7.2 7.0 7.4 10.0 nan nan nan nan nan 5.0
nan nan nan nan nan nan nan nan nan nan nan nan nan nan nan nan 4.8 nan nan nan nan 4.2 4.1 3.8 4.3 4.6 3.2 3.3 3.5 3.0 2.5 4.5 3.1 3.5 2.9 2.9 4.7 5.0 6.1 7.7 7.6 7.5 8.3 7.7 0.0 nan 6.7 8.0 8.0 10.0 nan nan 10.0 9.3
nan nan nan nan nan nan nan nan nan nan nan nan 5.0 3.3 4.0 2.4 nan nan 2.8 3.0 3.6 2.6 2.6 3.8 3.0 3.7 5.0 4.5 4.5 4.3 3.6 3.8 4.8 3.7 3.7 5.0 6.9 6.5 6.6 6.2 5.9 5.7 4.4 4.4 7.3 8.2 7.9 8.4 8.8 9.3 8.4 7.5 8.7 8.4
nan nan nan nan nan nan nan nan nan nan nan 5.0 3.6 3.2 5.2 nan nan 3.3 5.3 5.4 5.4 4.7 3.2 3.7 3.1 3.2 2.5 5.4 5.3 2.8 3.1 3.9 3.8 4.6 4.8 5.7 6.3 7.3 8.0 6.9 6.3 5.4 5.5 6.0 5.2 6.5 6.1 6.1 6.8 6.9 7.8 7.7 7.5 7.4
nan nan nan nan nan nan nan nan nan nan nan nan 2.5 nan 3.9 3.9 4.3 5.2 4.0 3.7 4.0 3.4 3.1 3.2 3.4 3.9 2.6 2.6 5.2 4.3 3.8 3.4 6.2 4.1 3.7 5.3 7.3 8.3 7.0 6.9 7.0 6.3 6.4 6.9 6.3 6.9 6.5 6.5 6.7 7.1 7.8 8.4 9.0 8.2
nan nan nan nan nan nan nan nan nan nan nan nan 2.5 3.9 3.9 3.3 7.1 3.9 4.1 3.6 3.2 3.3 2.8 2.6 2.9 3.1 2.8 2.7 4.3 3.6 4.3 4.2 3.3 4.5 6.4 7.1 8.1 8.3 7.3 7.0 7.6 6.8 6.8 7.2 7.7 7.5 7.9 7.8 7.7 7.0 9.1 7.5 7.1 8.3
nan nan nan nan nan nan nan nan nan nan nan 3.1 3.0 7.8 4.0 3.7 4.6 5.1 4.7 3.8 3.3 2.6 2.8 3.9 3.7 4.0 3.2 3.7 3.6 3.6 4.3 4.2 4.5 5.1 6.6 7.4 7.7 7.0 6.6 6.2 6.3 8.3 7.8 7.9 8.4 7.8 7.8 7.3 7.6 7.2 6.9 6.8 7.1 7.6
nan nan nan nan nan nan nan nan nan nan 2.9 3.4 3.4 8.0 5.5 4.6 4.2 4.0 3.3 3.2 3.3 3.0 3.6 4.1 3.9 4.3 3.6 4.2 3.8 3.6 4.3 5.0 5.4 6.3 6.2 7.1 7.2 6.8 7.4 7.2 7.2 7.4 7.3 7.6 7.7 7.7 7.7 8.1 7.8 8.6 8.0 8.1 8.2 8.1
nan nan nan nan nan nan nan nan nan nan 3.0 4.1 4.8 5.0 4.4 4.6 5.0 3.9 3.7 3.5 4.0 4.2 3.6 4.0 4.2 4.3 4.6 4.6 4.4 5.0 5.5 6.5 6.9 6.2 6.4 6.6 7.4 7.6 7.6 7.4 7.2 7.2 7.5 8.0 8.3 8.5 8.7 8.5 8.6 9.7 9.0 8.5 7.7 7.4
nan 2.6 nan nan nan nan nan nan 2.8 4.9 4.0 4.5 5.9 4.1 4.9 4.6 5.2 4.9 4.4 4.6 4.5 4.0 3.8 4.4 5.3 6.3 4.7 4.7 5.4 6.1 6.7 7.3 6.0 6.8 7.4 7.6 7.6 7.8 7.6 7.8 7.8 8.3 8.6 8.6 8.6 8.7 8.9 8.1 7.9 8.1 8.6 9.5 8.3 7.6
nan nan nan nan nan nan nan 2.6 5.2 4.2 6.0 6.1 6.2 5.9 5.7 5.6 4.9 4.6 4.5 5.1 4.5 5.1 5.3 6.3 4.8 5.4 5.4 5.9 6.9 7.6 7.2 6.5 6.7 8.0 8.6 8.5 8.6 8.6 8.3 8.6 8.5 8.6 9.0 8.8 8.7 8.6 8.0 7.5 7.8 7.9 8.4 8.0 7.4 7.4
nan nan nan nan nan 2.5 3.7 3.4 3.7 5.8 6.8 5.8 5.8 5.2 5.3 5.6 5.3 5.0 4.1 4.3 4.3 3.7 4.0 4.6 5.1 7.4 7.8 8.1 6.7 6.1 6.3 6.8 8.7 9.4 9.2 9.2 8.6 8.7 8.7 8.6 8.7 8.8 9.0 9.0 8.6 8.2 8.4 9.1 8.1 7.0 6.6 6.4 6.8 7.4
nan nan nan nan nan 2.8 3.9 4.1 2.9 4.1 6.0 6.8 4.9 5.9 6.4 6.6 4.9 4.3 3.9 3.4 3.6 4.2 5.3 6.6 8.5 9.3 8.9 8.8 8.1 7.9 7.9 7.1 7.0 7.8 8.8 8.9 8.4 8.8 8.7 8.6 8.5 8.8 8.3 8.5 7.5 4.4 6.9 7.3 7.6 7.6 7.2 7.3 7.1 7.3
nan nan nan nan 2.7 5.0 3.0 3.9 4.5 4.1 5.9 6.2 5.0 4.6 7.4 4.4 5.3 5.2 4.8 3.9 4.8 6.5 9.3 9.5 8.2 7.3 8.5 8.3 7.7 7.7 8.2 7.3 8.2 6.0 7.4 9.7 9.1 8.4 8.3 7.8 6.9 6.9 7.0 7.5 6.9 8.1 6.5 7.9 8.3 7.8 6.2 6.1 6.3 6.3
nan nan 2.6 2.7 3.2 3.3 4.2 3.2 4.5 5.0 4.4 4.3 4.5 4.1 5.1 5.4 5.5 5.4 4.4 5.5 8.7 9.6 9.0 8.6 9.0 8.2 8.0 9.2 9.3 8.7 8.9 8.4 8.4 7.3 4.8 6.2 8.5 8.1 8.9 8.0 7.5 8.0 8.1 7.7 7.8 7.2 7.3 8.2 7.2 7.0 6.4 5.9 6.1 6.2
nan 2.9 3.8 3.8 4.2 7.1 9.0 4.7 4.6 5.2 4.7 4.4 4.0 4.8 5.3 5.5 5.3 3.9 6.0 7.6 8.7 9.2 8.5 8.0 9.2 8.3 8.7 9.2 6.9 7.2 6.1 6.3 7.1 7.8 7.7 8.5 8.5 7.0 8.2 8.4 7.5 7.1 7.4 8.3 7.0 7.0 6.8 3.8 6.0 6.3 6.3 6.2 6.1 6.1
nan 3.8 4.5 4.2 5.8 7.9 3.8 4.7 3.8 4.1 4.1 4.5 4.7 5.7 5.5 5.0 4.6 5.8 7.0 9.1 9.8 8.6 7.9 9.0 6.0 6.7 6.3 7.1 7.6 7.8 6.3 5.5 6.3 7.0 6.2 6.7 7.9 8.6 7.6 7.7 7.3 7.2 7.1 6.8 6.7 6.7 6.5 6.3 3.6 6.7 6.5 6.2 6.2 6.5
7.7 7.4 4.5 9.3 4.1 4.8 5.1 4.9 4.7 4.5 5.6 5.0 5.4 5.3 6.5 4.4 6.2 6.5 6.6 8.5 8.6 7.9 8.1 6.6 6.3 6.2 7.1 7.6 8.2 8.6 8.3 5.8 7.2 8.3 6.9 6.3 6.9 7.0 7.0 6.9 7.1 7.4 6.8 6.5 6.5 6.3 6.2 6.2 6.2 6.3 6.8 6.3 6.8 7.0
8.7 5.6 8.8 4.5 5.2 4.6 4.9 6.0 5.8 5.4 5.7 6.2 6.0 5.4 4.8 5.3 6.4 7.9 8.3 7.6 7.5 7.1 6.8 6.7 6.6 7.1 8.3 7.1 8.1 8.4 8.4 5.4 5.4 7.1 7.6 7.2 7.2 6.9 7.0 7.2 7.4 7.1 7.3 6.9 6.8 6.2 6.6 6.7 6.5 7.0 6.7 6.8 3.9 6.9
9.0 6.5 5.0 4.2 4.6 4.4 5.8 5.1 4.5 5.6 6.6 6.9 5.6 5.9 5.2 7.4 7.4 9.4 9.5 8.8 8.7 8.3 8.4 7.3 6.5 7.3 8.3 8.7 8.2 7.9 7.3 7.4 7.7 7.9 7.4 7.1 7.3 7.2 7.5 7.9 8.1 8.0 7.2 7.0 6.7 6.3 6.5 6.6 6.6 6.9 6.9 6.7 7.0 7.0
6.0 5.5 8.6 5.4 6.1 5.2 6.4 6.3 6.4 6.8 6.0 5.8 5.9 7.3 7.3 7.4 8.9 9.9 10.1 9.1 8.2 8.0 7.8 7.7 7.6 7.8 7.9 8.5 8.5 9.0 8.5 8.1 7.7 7.4 7.4 7.5 7.3 8.1 8.4 8.0 7.8 3.0 7.2 7.0 6.7 6.8 7.0 6.7 6.7 6.8 7.3 7.1 7.5 7.1
6.4 5.0 5.3 9.1 6.9 6.4 7.2 7.1 7.3 6.8 7.8 5.6 6.1 7.1 8.0 9.5 10.0 9.8 10.8 9.7 7.4 7.2 8.9 9.0 9.4 8.6 8.6 8.2 8.4 8.6 9.2 9.0 7.9 9.3 9.0 9.0 8.5 9.2 9.4 9.2 9.2 8.9 8.9 8.2 3.0 4.5 6.7 7.3 7.6 7.9 6.8 7.4 7.3 7.5
6.4 4.6 5.9 6.7 9.4 7.9 7.0 6.8 6.1 6.1 7.0 6.5 6.6 7.7 9.9 10.9 11.1 10.0 9.8 9.5 9.0 8.1 7.5 7.7 7.9 7.6 7.6 8.1 8.5 9.0 8.5 8.3 8.7 8.5 8.0 8.8 9.0 9.1 8.9 8.5 8.5 8.5 8.6 7.6 8.6 9.0 3.7 7.6 5.3 7.6 8.1 8.4 8.4 8.2
4.8 4.8 5.7 5.7 6.6 6.7 7.1 6.3 5.8 6.0 6.0 6.4 6.4 6.4 8.1 9.9 9.9 11.0 10.5 9.9 9.1 7.2 7.0 7.1 7.2 7.2 7.6 8.4 7.6 7.8 8.6 7.8 9.2 9.4 9.5 9.1 8.9 8.4 8.3 8.6 8.4 8.0 8.2 8.3 8.0 8.5 8.9 8.5 8.1 8.1 8.6 8.9 9.1 9.1
6.2 6.3 7.6 7.7 6.9 6.5 6.4 6.2 6.3 6.5 5.8 6.7 6.7 7.4 7.6 7.9 9.0 9.6 9.6 8.4 8.0 7.6 3.5 8.0 7.3 8.7 8.8 9.0 8.5 8.5 3.3 9.2 9.2 9.3 9.2 8.9 8.5 8.4 9.0 9.3 8.1 8.0 8.4 8.4 8.7 8.7 8.9 8.6 8.7 8.6 8.9 9.1 9.2 9.4
5.8 6.0 6.6 6.9 6.2 6.4 7.0 6.0 6.3 6.6 7.1 7.0 7.4 7.9 8.1 8.4 9.8 9.1 10.2 8.6 8.3 8.1 8.3 7.9 7.8 7.4 8.7 8.9 9.1 8.9 4.5 9.1 7.7 3.0 3.0 3.0 3.0 3.9 8.8 8.3 8.0 8.5 9.2 8.8 8.7 8.9 9.1 9.4 9.4 9.2 9.2 9.1 9.2 9.3